Location: Newark
(39.0622°N, 106.5590°E)
Time: 01:29:54
(UTC+00:00)

Vanguard 2 Rocket - Pass Details

Date: 24 January 2020
Orbit: 554 x 3327 km, 32.9° (Epoch: 21 February)

Event Time Altitude Azimuth Distance (km) Brightness Sun altitude
Rises 23:05:49 0° 251° (WSW) 2,901 - -11.9°
Exits shadow 23:07:32 - 245° (WSW) 2,245 8.5 -11.6°
Reaches altitude 10° 23:07:50 10° 244° (WSW) 2,134 8.4 -11.6°
Maximum altitude 23:12:28 47° 170° (S) 1,166 7.6 -10.7°
Drops below altitude 10° 23:19:51 10° 100° (E) 3,388 11.4 -9.3°
Sets 23:23:51 0° 95° (E) 4,833 12.6 -8.6°
